Home > Weather > Bourges > Past weeks

Flag for France Past Weather in Bourges, Centre-Val de Loire, France — Yesterday and Last 2 Weeks

Now
70 °F

Mild.


Feels Like: 70 °F
Forecast: 59 / 78 °F
Wind: 2 mph from North

Location: Bourges

Current Time: Jul 27, 2016 at 11:15:09 PM

Latest Report: Jul 27, 2016 at 10:00 PM


Visibility: 4 mi

Pressure: 30.09 "Hg

Humidity: 58%

Dew Point: 54 °F

Location of BourgesLocation

Past Weather in Bourges — Graph

°F

Bourges Temperature Yesterday

Maximum temperature yesterday: 78 °F (at 5:00 PM)
Minimum temperature yesterday: 63 °F (at 6:00 AM)
Average temperature yesterday: 70 °F

High & Low Weather Summary for the Past Weeks

 TemperatureHumidityPressure
High95 °F (Jul 19, 6:00 PM)93% (Jul 13, 12:00 AM)30.38 "Hg (Jul 13, 12:00 AM)
Low48 °F (Jul 15, 6:00 AM)25% (Jul 19, 3:00 PM)29.92 "Hg (Jul 19, 8:00 PM)
Average70 °F61%30.13 "Hg
* Reported Jul 12 9:00 PM — Jul 27 9:00 PM, Bourges, Weather by CustomWeather, © 2016

Note: Actual official high and low records may vary slightly from our data, if they occured in-between our weather recording intervals... More about our weather records

Advertising

Bourges Weather History for the Previous 24 Hours

Scroll right to see more
 ConditionsComfort  
Time TempWeatherWind HumidityBarometerVisibility
9:00 PM
Wed, Jul 27
73 °FMild.5 mph50%30.09 "Hg12 mi
8:00 PM75 °FMild.6 mph47%30.09 "Hg12 mi
7:00 PM77 °FWarm.8 mph42%30.08 "Hg12 mi
6:00 PM78 °FWarm.7 mph43%30.09 "Hg12 mi
5:00 PM77 °FPassing clouds.7 mph43%30.10 "Hg19 mi
4:00 PM76 °FPassing clouds.9 mph43%30.11 "Hg19 mi
3:00 PM75 °FPassing clouds.10 mph45%30.11 "Hg19 mi
2:00 PM73 °FMild.8 mph52%30.13 "Hg12 mi
1:00 PM71 °FPartly sunny.8 mph55%30.14 "Hg16 mi
12:00 PM70 °FOvercast.7 mph59%30.14 "Hg16 mi
11:00 AM67 °FOvercast.5 mph67%30.15 "Hg12 mi
10:00 AM63 °FOvercast.3 mph74%30.15 "Hg11 mi
9:00 AM61 °FOvercast.1 mph80%30.15 "Hg11 mi
8:00 AM58 °FOvercast.1 mph84%30.15 "Hg9 mi
7:00 AM56 °FOvercast.3 mph88%30.14 "Hg9 mi
6:00 AM56 °FPassing clouds.5 mph87%30.14 "Hg12 mi
5:00 AM57 °FCool.3 mph86%30.14 "Hg12 mi
4:00 AM59 °FCool.2 mph83%30.14 "Hg12 mi
3:00 AM60 °FCool.3 mph82%30.15 "Hg12 mi
2:00 AM63 °FMild.6 mph72%30.15 "Hg12 mi
1:00 AM64 °FMild.2 mph69%30.15 "Hg12 mi
12:00 AM66 °FMild.2 mph66%30.16 "Hg12 mi
11:00 PM
Tue, Jul 26
67 °FMild.3 mph63%30.15 "Hg12 mi
Weather by CustomWeather, © 2016

See weather overviewHow to use our weather pages